| time (UTC) | temp F | wind direction | speed MPH | gust MPH | rain 1hr in | rain 24hr in | rain mn in | humidity % | barometer mb |
| 20260903140036 | 62 | 306 | 1.0 | 4.0 | 0.00 | 0.00 | 0.00 | 88 | 1018.7 |
| 20260903134539 | 63 | 314 | 2.0 | 3.0 | 0.00 | 0.00 | 0.00 | 88 | 1018.7 |
| 20260903133035 | 64 | 295 | 1.0 | 3.0 | 0.00 | 0.00 | 0.00 | 87 | 1018.6 |
| 20260903131535 | 64 | 295 | 1.0 | 2.0 | 0.00 | 0.00 | 0.00 | 86 | 1018.7 |
| 20260903130036 | 65 | 321 | 1.0 | 3.0 | 0.00 | 0.00 | 0.00 | 85 | 1018.7 |
| 20260903124532 | 65 | 321 | 1.0 | 2.0 | 0.00 | 0.00 | 0.00 | 85 | 1018.8 |
| 20260903123032 | 66 | 327 | 0.0 | 2.0 | 0.00 | 0.00 | 0.00 | 84 | 1018.7 |
| 20260903121529 | 66 | 290 | 1.0 | 3.0 | 0.00 | 0.00 | 0.00 | 83 | 1018.7 |
| 20260903120029 | 66 | 20 | 1.0 | 3.0 | 0.00 | 0.00 | 0.00 | 83 | 1018.5 |
| 20260903114528 | 66 | 340 | 1.0 | 3.0 | 0.00 | 0.00 | 0.00 | 82 | 1018.5 |
| 20260903113034 | 68 | 309 | 1.0 | 3.0 | 0.00 | 0.00 | 0.00 | 81 | 1018.5 |
| 20260903111525 | 67 | 319 | 1.0 | 3.0 | 0.00 | 0.00 | 0.00 | 81 | 1018.3 |
| 20260903110024 | 68 | 340 | 0.0 | 3.0 | 0.00 | 0.00 | 0.00 | 79 | 1018.3 |
| 20260903104524 | 70 | 1 | 2.0 | 3.0 | 0.00 | 0.00 | 0.00 | 76 | 1018.2 |
| 20260903103025 | 71 | 314 | 1.0 | 3.0 | 0.00 | 0.00 | 0.00 | 74 | 1018.2 |
| 20260903101528 | 71 | 340 | 1.0 | 2.0 | 0.00 | 0.00 | 0.00 | 75 | 1018.1 |
| 20260903100019 | 72 | 1 | 1.0 | 2.0 | 0.00 | 0.00 | 0.00 | 74 | 1018.0 |
| 20260903094518 | 72 | 1 | 1.0 | 5.0 | 0.00 | 0.00 | 0.00 | 74 | 1017.9 |
| 20260903093020 | 71 | 15 | 1.0 | 3.0 | 0.00 | 0.00 | 0.00 | 76 | 1017.8 |
| 20260903091509 | 71 | 1 | 1.0 | 2.0 | 0.00 | 0.00 | 0.00 | 76 | 1017.6 |
| 20260903090021 | 72 | 286 | 0.0 | 3.0 | 0.00 | 0.00 | 0.00 | 75 | 1017.6 |
| 20260903084507 | 72 | 344 | 1.0 | 3.0 | 0.00 | 0.00 | 0.00 | 75 | 1017.6 |
| 20260903083105 | 72 | 309 | 2.0 | 3.0 | 0.00 | 0.00 | 0.00 | 74 | 1017.5 |
| 20260903081506 | 73 | 327 | 1.0 | 4.0 | 0.00 | 0.00 | 0.00 | 72 | 1017.4 |
| 20260903080005 | 75 | 336 | 1.0 | 4.0 | 0.00 | 0.00 | 0.00 | 69 | 1017.3 |
| 20260903074503 | 75 | 1 | 2.0 | 5.0 | 0.00 | 0.00 | 0.00 | 68 | 1017.2 |
| 20260903073003 | 76 | 347 | 3.0 | 6.0 | 0.00 | 0.00 | 0.00 | 65 | 1017.1 |
| 20260903071611 | 77 | 1 | 5.0 | 8.0 | 0.00 | 0.00 | 0.00 | 63 | 1017.0 |
| 20260903064557 | 79 | 8 | 5.0 | 9.0 | 0.00 | 0.00 | 0.00 | 58 | 1016.8 |
| 20260903063057 | 80 | 317 | 3.0 | 12.0 | 0.00 | 0.00 | 0.00 | 56 | 1016.8 |
| 20260903061601 | 81 | 349 | 5.0 | 9.0 | 0.00 | 0.00 | 0.00 | 55 | 1016.8 |
| 20260903060052 | 80 | 331 | 1.0 | 7.0 | 0.00 | 0.00 | 0.00 | 60 | 1016.7 |
| 20260903054554 | 81 | 350 | 1.0 | 7.0 | 0.00 | 0.00 | 0.00 | 58 | 1016.7 |
| 20260903053051 | 82 | 1 | 2.0 | 4.0 | 0.00 | 0.00 | 0.00 | 56 | 1016.7 |
| 20260903051546 | 82 | 178 | 1.0 | 4.0 | 0.00 | 0.00 | 0.00 | 55 | 1016.7 |
| 20260903050043 | 82 | 340 | 2.0 | 5.0 | 0.00 | 0.00 | 0.00 | 54 | 1016.9 |
| 20260903044540 | 82 | 360 | 3.0 | 7.0 | 0.00 | 0.00 | 0.00 | 54 | 1017.1 |
| 20260903043039 | 82 | 127 | 1.0 | 6.0 | 0.00 | 0.00 | 0.00 | 54 | 1017.2 |
| 20260903041642 | 82 | 269 | 1.0 | 7.0 | 0.00 | 0.00 | 0.00 | 55 | 1017.3 |
| 20260903040028 | 82 | 347 | 2.0 | 6.0 | 0.00 | 0.00 | 0.00 | 54 | 1017.4 |
| 20260903024539 | 82 | 32 | 2.0 | 6.0 | 0.00 | 0.00 | 0.00 | 50 | 1018.7 |
| 20260903023037 | 82 | 349 | 1.0 | 8.0 | 0.00 | 0.00 | 0.00 | 51 | 1019.0 |
| 20260903021531 | 84 | 333 | 2.0 | 9.0 | 0.00 | 0.00 | 0.00 | 49 | 1019.2 |
| 20260903020028 | 85 | 335 | 3.0 | 6.0 | 0.00 | 0.00 | 0.00 | 44 | 1019.5 |
| 20260903014530 | 83 | 344 | 2.0 | 9.0 | 0.00 | 0.00 | 0.00 | 44 | 1019.9 |
| 20260903013030 | 80 | 68 | 1.0 | 6.0 | 0.00 | 0.00 | 0.00 | 47 | 1020.1 |
| 20260903011518 | 80 | 21 | 3.0 | 7.0 | 0.00 | 0.00 | 0.00 | 47 | 1020.6 |
| 20260903010010 | 79 | 13 | 3.0 | 6.0 | 0.00 | 0.00 | 0.00 | 49 | 1021.0 |
| 20260902234518 | 72 | 340 | 2.0 | 5.0 | 0.00 | 0.00 | 0.00 | 64 | 1022.0 |
| 20260902233015 | 71 | 286 | 0.0 | 4.0 | 0.00 | 0.00 | 0.00 | 67 | 1022.0 |
| 20260902231514 | 70 | 335 | 1.0 | 4.0 | 0.00 | 0.00 | 0.00 | 70 | 1022.0 |
| 20260902230008 | 68 | 340 | 1.0 | 4.0 | 0.00 | 0.00 | 0.00 | 72 | 1022.1 |
| 20260902224503 | 66 | 1 | 0.0 | 2.0 | 0.00 | 0.00 | 0.00 | 76 | 1022.4 |
| 20260902223100 | 64 | 89 | 1.0 | 4.0 | 0.00 | 0.00 | 0.00 | 81 | 1022.4 |
| 20260902221555 | 62 | 303 | 0.0 | 2.0 | 0.00 | 0.00 | 0.00 | 85 | 1022.3 |
| 20260902220056 | 60 | 303 | 0.0 | 2.0 | 0.00 | 0.00 | 0.00 | 89 | 1022.3 |
| 20260902214545 | 59 | 324 | 1.0 | 4.0 | 0.00 | 0.00 | 0.00 | 91 | 1021.9 |
| 20260902213052 | 57 | 303 | 0.0 | 3.0 | 0.00 | 0.00 | 0.00 | 92 | 1022.1 |
| 20260902211548 | 55 | 269 | 0.0 | 3.0 | 0.00 | 0.00 | 0.00 | 93 | 1022.0 |
| 20260902210046 | 54 | 1 | 1.0 | 3.0 | 0.00 | 0.00 | 0.00 | 93 | 1021.9 |
| 20260902204645 | 54 | 310 | 2.0 | 4.0 | 0.00 | 0.00 | 0.00 | 93 | 1021.9 |
| 20260902203041 | 54 | 310 | 2.0 | 3.0 | 0.00 | 0.00 | 0.00 | 93 | 1021.5 |
| 20260902201529 | 54 | 306 | 1.0 | 3.0 | 0.00 | 0.00 | 0.00 | 93 | 1021.4 |
| 20260902200025 | 55 | 314 | 0.0 | 3.0 | 0.00 | 0.00 | 0.00 | 94 | 1021.1 |
| 20260902194525 | 54 | 298 | 2.0 | 4.0 | 0.00 | 0.00 | 0.00 | 93 | 1021.2 |
| 20260902193022 | 54 | 295 | 1.0 | 3.0 | 0.00 | 0.00 | 0.00 | 93 | 1021.1 |
| 20260902191533 | 54 | 286 | 0.0 | 2.0 | 0.00 | 0.00 | 0.00 | 93 | 1020.9 |
| 20260902190018 | 54 | 295 | 1.0 | 3.0 | 0.00 | 0.00 | 0.00 | 93 | 1020.6 |
| 20260902184523 | 54 | 306 | 2.0 | 5.0 | 0.00 | 0.00 | 0.00 | 92 | 1020.6 |
| 20260902183014 | 54 | 314 | 1.0 | 3.0 | 0.00 | 0.00 | 0.00 | 92 | 1020.7 |
| 20260902181510 | 55 | 1 | 0.0 | 3.0 | 0.00 | 0.00 | 0.00 | 92 | 1020.4 |
| 20260902174507 | 55 | 302 | 1.0 | 2.0 | 0.00 | 0.00 | 0.00 | 92 | 1020.4 |
| 20260902173005 | 55 | 286 | 1.0 | 2.0 | 0.00 | 0.00 | 0.00 | 92 | 1020.4 |
| 20260902171503 | 55 | 269 | 1.0 | 3.0 | 0.00 | 0.00 | 0.00 | 91 | 1020.3 |
| 20260902170059 | 55 | 298 | 1.0 | 3.0 | 0.00 | 0.00 | 0.00 | 91 | 1020.4 |
| 20260902164558 | 56 | 331 | 0.0 | 3.0 | 0.00 | 0.00 | 0.00 | 90 | 1020.4 |
| 20260902163119 | 57 | 314 | 1.0 | 3.0 | 0.00 | 0.00 | 0.00 | 90 | 1020.4 |
| 20260902161556 | 57 | 178 | 1.0 | 3.0 | 0.00 | 0.00 | 0.00 | 90 | 1020.4 |
| 20260902160050 | 56 | 277 | 2.0 | 4.0 | 0.00 | 0.00 | 0.00 | 89 | 1020.6 |
| 20260902154548 | 57 | 269 | 0.0 | 2.0 | 0.00 | 0.00 | 0.00 | 88 | 1020.8 |
| 20260902153046 | 58 | 314 | 0.0 | 2.0 | 0.00 | 0.00 | 0.00 | 88 | 1020.8 |
| 20260902151513 | 58 | 253 | 1.0 | 4.0 | 0.00 | 0.00 | 0.00 | 88 | 1021.1 |
| 20260902150011 | 57 | 281 | 2.0 | 5.0 | 0.00 | 0.00 | 0.00 | 89 | 1021.1 |
| 20260902144517 | 58 | 306 | 2.0 | 4.0 | 0.00 | 0.00 | 0.00 | 88 | 1021.1 |
| 20260902143012 | 58 | 307 | 2.0 | 4.0 | 0.00 | 0.00 | 0.00 | 88 | 1021.2 |